Beaufort MCAS, SC

11:29 AM EDT on April 27, 2017 (GMT -0400)
Beaufort Marine Corps Air Station

Weather History for KNBC - May, 2013

Change the Weather History Date:

Sunday, May 5, 2013

  Actual Average Record
Temperature  
Mean Temperature 66 °F -  
Max Temperature 73 °F 79 °F 95 °F (2012)
Min Temperature 59 °F 58 °F 40 °F (1957)
Growing Degree Days 16 (Base 50)    
Moisture  
Dew Point 62 °F    
Average Humidity 87    
Maximum Humidity 100    
Minimum Humidity 66    
Precipitation  
Precipitation 1.21 in - - ()
Sea Level Pressure  
Sea Level Pressure 29.81 in    
Wind  
Wind Speed 10 mph (SE)    
Max Wind Speed 22 mph    
Max Gust Speed 29 mph    
Visibility 10 miles    
Events Rain , Thunderstorm    
Averages and records for this station are not official NWS values.
T = Trace of Precipitation, MM = Missing Value Source: NWS Daily Summary

Daily Weather History Graph

Daily Weather History Graph

Search for Another Location

Airport or City:

Trip Planner

Search our weather history database for the weather conditions in past years. The results will help you decide how hot, cold, wet, or windy it might be!

Date:

Astronomy

May. 05, 2013 Rise Set
Actual Time 6:32 AM EDT 8:07 PM EDT
Civil Twilight 6:05 AM EDT 8:33 PM EDT
Nautical Twilight 5:34 AM EDT 9:05 PM EDT
Astronomical Twilight 5:01 AM EDT 9:38 PM EDT
Moon 3:47 AM EDT (5/5) 4:17 PM EDT (5/5)
Length of Visible Light 14h 27m
Length of Day
13h 34m
Waning Crescent, 18% of the Moon is Illuminated
May 5
Waning Crescent
May 9
New
May 18
First Quarter
May 25
Full
May 31
Last Quarter

Hourly Weather History & Observations

Time (EDT) Temp. Dew Point Humidity Pressure Visibility Wind Dir Wind Speed Gust Speed Precip Events Conditions
12:07 AM 64.4 °F 60.8 °F 88% 29.88 in - East 9.2 mph 20.7 mph N/A   Overcast
12:56 AM 64.0 °F 61.0 °F 90% 29.87 in - East 9.2 mph - 0.01 in Rain Light Rain
1:56 AM 64.9 °F 61.0 °F 87% 29.83 in - East 11.5 mph 18.4 mph 0.00 in Rain Light Rain
2:56 AM 64.9 °F 62.1 °F 90% 29.81 in - East 8.1 mph 18.4 mph 0.01 in Rain Light Rain
3:56 AM 64.9 °F 61.0 °F 87% 29.81 in - East 10.4 mph - 0.01 in   Overcast
4:13 AM 64.4 °F 62.6 °F 94% 29.80 in - East 10.4 mph - 0.01 in Rain Light Rain
4:56 AM 64.9 °F 62.1 °F 90% 29.79 in - ESE 15.0 mph 21.9 mph 0.03 in   Overcast
5:56 AM 66.0 °F 61.0 °F 84% 29.78 in - ESE 13.8 mph 23.0 mph 0.02 in   Overcast
6:56 AM 66.9 °F 60.1 °F 79% 29.77 in - East 16.1 mph 23.0 mph N/A   Overcast
7:11 AM 66.2 °F 60.8 °F 83% 29.79 in - East 12.7 mph 23.0 mph N/A Thunderstorm Thunderstorm
7:40 AM 66.2 °F 62.6 °F 88% 29.80 in - East 10.4 mph - 0.06 in Rain Heavy Rain
7:47 AM 66.2 °F 62.6 °F 88% 29.80 in - East 8.1 mph 18.4 mph 0.11 in Rain Heavy Rain
7:56 AM 66.9 °F 62.1 °F 84% 29.80 in - ESE 9.2 mph - 0.14 in Rain Rain
8:32 AM 66.2 °F 62.6 °F 88% 29.79 in - ESE 12.7 mph 21.9 mph 0.10 in Rain Light Rain
8:56 AM 66.9 °F 62.1 °F 84% 29.80 in - ESE 12.7 mph - 0.11 in Rain Light Rain
9:38 AM 66.2 °F 62.6 °F 88% 29.80 in - SE 21.9 mph 28.8 mph 0.12 in Rain Heavy Rain
9:56 AM 66.0 °F 63.0 °F 90% 29.81 in - SE 19.6 mph 27.6 mph 0.15 in Rain Rain
10:27 AM 66.2 °F 62.6 °F 88% 29.82 in - SE 15.0 mph 23.0 mph 0.03 in Rain Light Rain
10:56 AM 66.9 °F 64.0 °F 90% 29.83 in - SE 10.4 mph 17.3 mph 0.09 in Rain Rain
11:23 AM 66.2 °F 64.4 °F 94% 29.82 in - SE 17.3 mph 25.3 mph 0.01 in   Overcast
11:56 AM 68.0 °F 64.0 °F 87% 29.83 in - SE 13.8 mph 23.0 mph 0.02 in Rain Light Rain
12:02 PM 68.0 °F 64.4 °F 88% 29.83 in - SE 10.4 mph 23.0 mph 0.00 in Rain Light Rain
12:48 PM 66.2 °F 64.4 °F 94% 29.81 in - South 5.8 mph 20.7 mph 0.33 in Rain Rain
12:56 PM 66.9 °F 64.9 °F 93% 29.81 in - SSE 9.2 mph - 0.41 in Rain Heavy Rain
1:04 PM 66.2 °F 66.2 °F 100% 29.81 in - South 11.5 mph 17.3 mph 0.06 in Rain Heavy Rain
1:19 PM 66.2 °F 64.4 °F 94% 29.81 in - South 8.1 mph 23.0 mph 0.10 in Rain Light Rain
1:31 PM 68.0 °F 66.2 °F 94% 29.81 in - SSE 12.7 mph 23.0 mph 0.10 in   Overcast
1:56 PM 71.1 °F 68.0 °F 90% 29.81 in - SSE 10.4 mph 18.4 mph 0.10 in Rain Light Rain
2:22 PM 68.0 °F 66.2 °F 94% 29.81 in - South 6.9 mph - 0.08 in Rain Rain
2:56 PM 68.0 °F 64.9 °F 90% 29.81 in - West 6.9 mph - 0.11 in Rain Light Rain
3:26 PM 66.2 °F 62.6 °F 88% 29.80 in - West 8.1 mph - 0.00 in   Overcast
3:47 PM 68.0 °F 64.4 °F 88% 29.80 in - WNW 5.8 mph - 0.00 in   Overcast
3:56 PM 68.0 °F 63.0 °F 84% 29.80 in 10.0 mi WNW 6.9 mph - 0.00 in   Overcast
4:48 PM 69.8 °F 62.6 °F 78% 29.79 in 10.0 mi WNW 4.6 mph - N/A   Overcast
4:56 PM 69.1 °F 63.0 °F 81% 29.80 in 10.0 mi WNW 5.8 mph - N/A   Overcast
5:53 PM 71.6 °F 62.6 °F 73% 29.79 in 10.0 mi NW 3.5 mph - N/A   Overcast
5:56 PM 72.0 °F 62.1 °F 71% 29.79 in 10.0 mi Variable 5.8 mph - N/A   Scattered Clouds
6:56 PM 72.0 °F 60.1 °F 66% 29.80 in - Calm Calm - N/A   Clear
7:56 PM 69.1 °F 62.1 °F 78% 29.81 in - Calm Calm - N/A   Clear
8:56 PM 63.0 °F 60.1 °F 90% 29.82 in - Calm Calm - N/A   Clear
9:56 PM 62.1 °F 59.0 °F 90% 29.84 in - Calm Calm - N/A   Clear
10:56 PM 60.1 °F 57.9 °F 93% 29.86 in - Calm Calm - N/A   Clear
11:20 PM 59.0 °F 57.2 °F 94% 29.85 in - Calm Calm - N/A   Partly Cloudy
11:56 PM 60.1 °F 57.9 °F 93% 29.86 in - Calm Calm - N/A   Clear